Terminal Aerodrome Forecast
Issued by NWS Melbourne, FL

Home | Current Version | Previous Version | Text Only | Print | Product List | Glossary On
Versions: 1 2 3 4 5 6 7 8 9 10 11 12 13 14 15 16 17
000
FTUS42 KMLB 261400 AAA
TAFDAB
TAF AMD
KDAB 261429Z 2614/2712 26010KT P6SM FEW040 FEW100
     FM261600 28019G28KT P6SM FEW030 SCT120
     FM270000 27012G19KT P6SM SKC=

USA.gov is the U.S. government's official web portal to all federal, state and local government web resources and services.